User: anonymous   Login
Location: Carbonear
(47.7333°N, 53.2500°W)
Time: 02:39:07
(UTC+00:00)
Language:

DX 1 - Orbit

View from above orbital plane
View from above orbital plane
View from above satellite
View from above satellite

Ground track
Ground track

The orbit data is extracted from the following two-line orbital elements,

1 40071U 14037C   22343.40839005  .00001013  00000-0  13442-3 0  9992
2 40071  98.3821 220.6141 0009279 110.5088 249.7116 14.82179912455256
Epoch (UTC): 09 December 2022 09:48:04
Eccentricity: 0.0009279
inclination: 98.3821°
perigee height: 616 km
apogee height: 629 km
right ascension of ascending node: 220.6141°
argument of perigee: 110.5088°
revolutions per day: 14.82179912
mean anomaly at epoch: 249.7116°
orbit number at epoch: 45525

The dashed part of the orbit path shows where the satellite is in the earth's shadow,  

DLR